Time,TemperatureF,DewpointF,PressureIn,WindDirection,WindDirectionDegrees,WindSpeedMPH,WindSpeedGustMPH,Humidity,HourlyPrecipIn,Conditions,Clouds,dailyrainin,SoftwareType,DateUTC
2013-01-03 00:08:00,32.8,32.0,29.41,ENE,61,4.0,17.0,95,0.01,,,0.07,weatherlink.com 1.10,2013-01-03 09:08:00,
2013-01-03 00:23:00,32.7,32.0,29.41,ESE,123,7.0,23.0,96,0.02,,,0.08,weatherlink.com 1.10,2013-01-03 09:23:00,
2013-01-03 00:38:00,32.6,32.0,29.41,East,101,6.0,13.0,96,0.02,,,0.00,weatherlink.com 1.10,2013-01-03 09:38:00,
2013-01-03 00:54:00,32.6,32.0,29.41,ESE,120,7.0,13.0,96,0.02,,,0.01,weatherlink.com 1.10,2013-01-03 09:54:00,
2013-01-03 01:09:00,32.4,31.0,29.41,East,88,5.0,13.0,96,0.03,,,0.02,weatherlink.com 1.10,2013-01-03 10:09:00,
2013-01-03 01:24:00,32.5,32.0,29.41,ENE,69,8.0,10.0,97,0.02,,,0.02,weatherlink.com 1.10,2013-01-03 10:24:00,
2013-01-03 01:39:00,32.6,32.0,29.41,ESE,105,8.0,11.0,97,0.05,,,0.05,weatherlink.com 1.10,2013-01-03 10:39:00,
2013-01-03 01:54:00,32.7,32.0,29.41,ESE,105,5.0,10.0,97,0.06,,,0.07,weatherlink.com 1.10,2013-01-03 10:54:00,
2013-01-03 02:09:00,32.7,32.0,29.41,East,92,5.0,11.0,97,0.06,,,0.08,weatherlink.com 1.10,2013-01-03 11:09:00,
2013-01-03 02:24:00,32.8,32.0,29.41,ENE,71,4.0,8.0,97,0.07,,,0.09,weatherlink.com 1.10,2013-01-03 11:24:00,
2013-01-03 02:39:00,32.8,32.0,29.41,East,80,6.0,9.0,97,0.05,,,0.11,weatherlink.com 1.10,2013-01-03 11:39:00,
2013-01-03 02:54:00,32.8,32.0,29.41,ESE,120,8.0,9.0,97,0.05,,,0.12,weatherlink.com 1.10,2013-01-03 11:54:00,
2013-01-03 03:09:00,32.8,32.0,29.41,East,84,5.0,7.0,97,0.05,,,0.13,weatherlink.com 1.10,2013-01-03 12:09:00,
2013-01-03 03:24:00,32.8,32.0,29.42,ENE,69,2.0,6.0,97,0.05,,,0.14,weatherlink.com 1.10,2013-01-03 12:24:00,
2013-01-03 03:39:00,32.9,32.0,29.42,East,92,3.0,7.0,97,0.04,,,0.15,weatherlink.com 1.10,2013-01-03 12:39:00,
2013-01-03 03:54:00,32.9,32.0,29.42,East,86,1.0,4.0,97,0.04,,,0.16,weatherlink.com 1.10,2013-01-03 12:54:00,
2013-01-03 04:09:00,33.0,32.0,29.41,East,80,0.0,8.0,97,0.05,,,0.18,weatherlink.com 1.10,2013-01-03 13:09:00,
2013-01-03 04:24:00,33.0,32.0,29.42,ENE,68,0.0,0.0,97,0.06,,,0.20,weatherlink.com 1.10,2013-01-03 13:24:00,
2013-01-03 04:39:00,33.0,32.0,29.41,ENE,62,0.0,0.0,97,0.09,,,0.24,weatherlink.com 1.10,2013-01-03 13:39:00,
2013-01-03 04:54:00,33.0,32.0,29.41,ENE,63,0.0,0.0,97,0.11,,,0.27,weatherlink.com 1.10,2013-01-03 13:54:00,
2013-01-03 05:09:00,33.1,32.0,29.41,ENE,63,0.0,0.0,97,0.10,,,0.28,weatherlink.com 1.10,2013-01-03 14:09:00,
2013-01-03 05:24:00,33.1,32.0,29.40,ENE,63,0.0,0.0,97,0.13,,,0.33,weatherlink.com 1.10,2013-01-03 14:24:00,
2013-01-03 05:39:00,33.2,33.0,29.40,ENE,63,0.0,0.0,97,0.12,,,0.36,weatherlink.com 1.10,2013-01-03 14:39:00,
2013-01-03 05:54:00,33.1,32.0,29.40,ENE,63,0.0,0.0,97,0.14,,,0.41,weatherlink.com 1.10,2013-01-03 14:54:00,
2013-01-03 06:09:00,33.1,32.0,29.40,ENE,63,0.0,0.0,97,0.16,,,0.44,weatherlink.com 1.10,2013-01-03 15:09:00,
2013-01-03 06:24:00,33.1,32.0,29.39,ENE,63,0.0,0.0,97,0.16,,,0.49,weatherlink.com 1.10,2013-01-03 15:24:00,
2013-01-03 06:39:00,33.2,33.0,29.39,ENE,63,0.0,0.0,97,0.16,,,0.53,weatherlink.com 1.10,2013-01-03 15:39:00,
2013-01-03 06:54:00,33.2,33.0,29.39,ENE,63,0.0,0.0,97,0.15,,,0.56,weatherlink.com 1.10,2013-01-03 15:54:00,
2013-01-03 09:23:00,31.3,31.0,29.40,SW,233,0.0,0.0,97,0.12,,,0.90,weatherlink.com 1.10,2013-01-03 18:23:00,
2013-01-03 09:38:00,31.2,31.0,29.42,SW,233,0.0,0.0,97,0.11,,,0.93,weatherlink.com 1.10,2013-01-03 18:38:00,
2013-01-03 09:53:00,31.2,31.0,29.43,SW,233,0.0,0.0,97,0.10,,,0.95,weatherlink.com 1.10,2013-01-03 18:53:00,
2013-01-03 10:08:00,31.4,31.0,29.43,SW,233,0.0,0.0,97,0.09,,,0.97,weatherlink.com 1.10,2013-01-03 19:08:00,
2013-01-03 10:57:00,31.7,31.0,29.45,SW,233,0.0,0.0,97,0.07,,,1.03,weatherlink.com 1.10,2013-01-03 19:57:00,
2013-01-03 11:09:00,31.6,31.0,29.45,SW,233,0.0,0.0,97,0.06,,,1.04,weatherlink.com 1.10,2013-01-03 20:09:00,
2013-01-03 11:24:00,32.1,31.0,29.45,SW,233,0.0,0.0,97,0.04,,,1.04,weatherlink.com 1.10,2013-01-03 20:24:00,
2013-01-03 11:39:00,32.7,32.0,29.45,SW,233,0.0,0.0,97,0.02,,,1.04,weatherlink.com 1.10,2013-01-03 20:39:00,
2013-01-03 11:54:00,32.9,32.0,29.45,SW,233,0.0,0.0,96,0.01,,,1.04,weatherlink.com 1.10,2013-01-03 20:54:00,
2013-01-03 12:09:00,33.0,32.0,29.45,SW,233,0.0,0.0,95,0.00,,,1.04,weatherlink.com 1.10,2013-01-03 21:09:00,
2013-01-03 12:24:00,31.9,31.0,29.46,SW,233,0.0,0.0,95,0.01,,,1.05,weatherlink.com 1.10,2013-01-03 21:24:00,
2013-01-03 12:39:00,31.5,31.0,29.46,SW,233,0.0,0.0,96,0.02,,,1.06,weatherlink.com 1.10,2013-01-03 21:39:00,
2013-01-03 12:54:00,32.5,31.0,29.46,SW,233,0.0,0.0,95,0.02,,,1.06,weatherlink.com 1.10,2013-01-03 21:54:00,
2013-01-03 13:09:00,33.2,32.0,29.47,SW,232,0.0,0.0,94,0.02,,,1.06,weatherlink.com 1.10,2013-01-03 22:09:00,
2013-01-03 13:24:00,32.3,31.0,29.47,SW,232,0.0,0.0,93,0.01,,,1.06,weatherlink.com 1.10,2013-01-03 22:24:00,
2013-01-03 13:39:00,33.0,32.0,29.47,SW,230,0.0,0.0,94,0.00,,,1.06,weatherlink.com 1.10,2013-01-03 22:39:00,
2013-01-03 13:54:00,33.9,32.0,29.47,SW,230,0.0,0.0,94,0.00,,,1.06,weatherlink.com 1.10,2013-01-03 22:54:00,
2013-01-03 14:09:00,34.6,33.0,29.47,SW,231,0.0,0.0,92,0.00,,,1.06,weatherlink.com 1.10,2013-01-03 23:09:00,
2013-01-03 14:24:00,34.0,32.0,29.47,SW,232,0.0,0.0,93,0.00,,,1.06,weatherlink.com 1.10,2013-01-03 23:24:00,
2013-01-03 14:39:00,34.4,32.0,29.47,NNW,328,0.0,0.0,92,0.00,,,1.06,weatherlink.com 1.10,2013-01-03 23:39:00,
2013-01-03 14:54:00,33.7,32.0,29.47,NNW,328,0.0,0.0,93,0.00,,,1.06,weatherlink.com 1.10,2013-01-03 23:54:00,
2013-01-03 15:09:00,33.1,31.0,29.47,NNW,328,0.0,0.0,93,0.00,,,1.06,weatherlink.com 1.10,2013-01-04 00:09:00,
2013-01-03 15:24:00,32.8,31.0,29.47,NNW,333,0.0,0.0,93,0.00,,,1.06,weatherlink.com 1.10,2013-01-04 00:24:00,
2013-01-03 15:39:00,32.5,31.0,29.47,NNW,334,0.0,0.0,93,0.00,,,1.06,weatherlink.com 1.10,2013-01-04 00:39:00,
2013-01-03 15:54:00,32.3,31.0,29.47,NNW,334,0.0,0.0,93,0.00,,,1.06,weatherlink.com 1.10,2013-01-04 00:54:00,
2013-01-03 16:09:00,31.5,30.0,29.46,NNW,334,0.0,0.0,93,0.00,,,1.06,weatherlink.com 1.10,2013-01-04 01:09:00,
2013-01-03 16:24:00,31.0,29.0,29.47,NNW,334,0.0,0.0,93,0.00,,,1.06,weatherlink.com 1.10,2013-01-04 01:24:00,
2013-01-03 16:54:00,30.6,29.0,29.47,NNW,335,0.0,0.0,93,0.00,,,1.06,weatherlink.com 1.10,2013-01-04 01:54:00,
2013-01-03 17:09:00,30.2,29.0,29.47,NNW,335,0.0,0.0,94,0.00,,,1.06,weatherlink.com 1.10,2013-01-04 02:09:00,
2013-01-03 17:24:00,30.1,28.0,29.48,NNW,335,0.0,0.0,93,0.00,,,1.06,weatherlink.com 1.10,2013-01-04 02:24:00,
2013-01-03 17:39:00,30.0,29.0,29.48,NW,307,0.0,0.0,94,0.00,,,1.06,weatherlink.com 1.10,2013-01-04 02:39:00,
2013-01-03 17:54:00,30.5,29.0,29.48,NNW,329,0.0,0.0,95,0.00,,,1.06,weatherlink.com 1.10,2013-01-04 02:54:00,
2013-01-03 18:09:00,30.8,30.0,29.48,NNW,329,0.0,0.0,95,0.00,,,1.06,weatherlink.com 1.10,2013-01-04 03:09:00,
2013-01-03 18:24:00,31.2,30.0,29.48,NNW,329,0.0,0.0,95,0.00,,,1.06,weatherlink.com 1.10,2013-01-04 03:24:00,
2013-01-03 18:39:00,31.5,30.0,29.49,NNW,329,0.0,0.0,95,0.00,,,1.06,weatherlink.com 1.10,2013-01-04 03:39:00,
2013-01-03 18:54:00,31.4,30.0,29.49,NNW,329,0.0,0.0,95,0.00,,,1.06,weatherlink.com 1.10,2013-01-04 03:54:00,
2013-01-03 19:09:00,31.6,30.0,29.49,NNW,329,0.0,0.0,95,0.00,,,1.06,weatherlink.com 1.10,2013-01-04 04:09:00,
2013-01-03 19:24:00,31.8,31.0,29.49,NNW,329,0.0,0.0,95,0.00,,,1.06,weatherlink.com 1.10,2013-01-04 04:24:00,
2013-01-03 19:39:00,32.3,31.0,29.49,NNW,329,0.0,0.0,95,0.00,,,1.06,weatherlink.com 1.10,2013-01-04 04:39:00,
2013-01-03 19:54:00,32.8,32.0,29.50,NNW,329,0.0,0.0,95,0.00,,,1.06,weatherlink.com 1.10,2013-01-04 04:54:00,
2013-01-03 20:24:00,33.4,32.0,29.50,NNW,329,0.0,0.0,94,0.00,,,1.06,weatherlink.com 1.10,2013-01-04 05:24:00,
2013-01-03 20:39:00,33.2,32.0,29.50,NNW,329,0.0,0.0,94,0.00,,,1.06,weatherlink.com 1.10,2013-01-04 05:39:00,
2013-01-03 20:54:00,33.2,32.0,29.51,NNW,329,0.0,0.0,94,0.00,,,1.06,weatherlink.com 1.10,2013-01-04 05:54:00,
2013-01-03 21:09:00,33.0,32.0,29.51,NNW,329,0.0,0.0,94,0.00,,,1.06,weatherlink.com 1.10,2013-01-04 06:09:00,
2013-01-03 21:24:00,33.3,32.0,29.51,NNW,329,0.0,0.0,94,0.00,,,1.06,weatherlink.com 1.10,2013-01-04 06:24:00,
2013-01-03 21:39:00,33.4,32.0,29.52,NNW,329,0.0,0.0,94,0.00,,,1.06,weatherlink.com 1.10,2013-01-04 06:39:00,
2013-01-03 21:56:00,32.7,32.0,29.52,NNW,330,0.0,0.0,95,0.00,,,1.06,weatherlink.com 1.10,2013-01-04 06:56:00,
2013-01-03 22:09:00,32.1,31.0,29.52,NNW,330,0.0,0.0,95,0.00,,,1.06,weatherlink.com 1.10,2013-01-04 07:09:00,
2013-01-03 22:24:00,31.9,31.0,29.52,NNW,330,0.0,0.0,95,0.00,,,1.06,weatherlink.com 1.10,2013-01-04 07:24:00,
2013-01-03 22:39:00,31.7,31.0,29.53,NNW,330,0.0,0.0,95,0.00,,,1.06,weatherlink.com 1.10,2013-01-04 07:39:00,
2013-01-03 22:55:00,31.4,30.0,29.53,NNW,330,0.0,0.0,94,0.00,,,1.06,weatherlink.com 1.10,2013-01-04 07:55:00,
2013-01-03 23:10:00,30.3,29.0,29.54,NNW,330,0.0,0.0,94,0.00,,,1.06,weatherlink.com 1.10,2013-01-04 08:10:00,
2013-01-03 23:25:00,29.7,28.0,29.54,NNW,330,0.0,0.0,94,0.00,,,1.06,weatherlink.com 1.10,2013-01-04 08:25:00,
2013-01-03 23:40:00,29.3,28.0,29.54,NNW,330,0.0,0.0,94,0.00,,,1.06,weatherlink.com 1.10,2013-01-04 08:40:00,
2013-01-03 23:55:00,29.1,28.0,29.55,NNW,330,0.0,0.0,95,0.00,,,1.06,weatherlink.com 1.10,2013-01-04 08:55:00,